Weather History for Montreal, QC

Change the Weather History Date:

Monday, August 26, 2013

  Actual Average Record
Temperature  
Mean Temperature 68 °F -  
Max Temperature 75 °F 74 °F 87 °F (2012)
Min Temperature 62 °F 56 °F 48 °F (2006)
Cooling Degree Days 4    
Growing Degree Days 18 (Base 50)    
Moisture  
Dew Point 66 °F    
Average Humidity 87    
Maximum Humidity 94    
Minimum Humidity 71    
Precipitation  
Precipitation 0.00 in - - ()
Sea Level Pressure  
Sea Level Pressure 29.94 in    
Wind  
Wind Speed 9 mph ()    
Max Wind Speed 18 mph    
Max Gust Speed 22 mph    
Visibility 10.1 miles    
Events Rain    
Averages and records for this station are not official NWS values.
T = Trace of Precipitation, MM = Missing Value Source: Averaged Metar Reports

Daily Weather History Graph

Daily Weather History Graph

Search for Another Location

Airport:

Trip Planner

Search our weather history database for the weather conditions in past years. The results will help you decide how hot, cold, wet, or windy it might be!

Date:

Astronomy

Aug. 26, 2013 Rise Set
Actual Time 6:09 AM EDT 7:43 PM EDT
Civil Twilight 5:38 AM EDT 8:14 PM EDT
Nautical Twilight 5:00 AM EDT 8:51 PM EDT
Astronomical Twilight 4:19 AM EDT 9:32 PM EDT
Moon 10:31 PM EDT (8/26) 12:28 PM EDT (8/26)
Length of Visible Light 14h 35m
Length of Day
13h 33m
Waning Gibbous, 67% of the Moon is Illuminated
Aug 26
Waning Gibbous
Aug 28
Last Quarter
Sep 5
New
Sep 12
First Quarter
Sep 19
Full

Hourly Weather History & Observations

Time (EDT) Temp. Dew Point Humidity Pressure Visibility Wind Dir Wind Speed Gust Speed Precip Events Conditions
12:00 AM 64.4 °F 60.8 °F 88% 30.09 in 8.0 mi SW 6.9 mph - N/A Rain Light Rain Showers
1:00 AM 64.4 °F 60.8 °F 88% 30.05 in 5.0 mi SSW 18.4 mph - N/A Rain Light Rain Showers
2:00 AM 62.6 °F 60.8 °F 94% 30.02 in 10.0 mi South 12.7 mph - N/A Rain Light Rain Showers
2:31 AM 64.4 °F 60.8 °F 88% 30.01 in 8.0 mi South 15.0 mph 21.9 mph N/A   Light Drizzle
3:00 AM 64.4 °F 62.6 °F 94% 30.00 in 10.0 mi SSW 12.7 mph 19.6 mph N/A   Overcast
3:31 AM 66.2 °F 62.6 °F 88% 29.99 in 10.0 mi SW 15.0 mph - N/A   Overcast
4:00 AM 66.2 °F 62.6 °F 88% 29.98 in 12.0 mi SSW 15.0 mph - N/A   Overcast
5:00 AM 66.2 °F 62.6 °F 88% 29.97 in 12.0 mi SSW 8.1 mph - N/A   Overcast
6:00 AM 66.2 °F 64.4 °F 94% 29.97 in 12.0 mi WSW 10.4 mph - N/A   Overcast
7:00 AM 68.0 °F 64.4 °F 88% 29.96 in 12.0 mi WSW 12.7 mph - N/A   Mostly Cloudy
8:00 AM 68 °F 65 °F 85% 29.97 in 12 mi WSW 11.5 mph - -   Partly Cloudy
8:00 AM 68.0 °F 64.4 °F 88% 29.97 in 12.0 mi WSW 11.5 mph - N/A   Overcast
8:50 AM 69.8 °F 64.4 °F 83% 29.96 in 10.0 mi WSW 10.4 mph - N/A   Overcast
9:00 AM 69.8 °F 64.4 °F 83% 29.96 in 10.0 mi WSW 10.4 mph - N/A   Overcast
10:00 AM 69.8 °F 66.2 °F 88% 29.96 in 10.0 mi West 6.9 mph - N/A   Overcast
10:29 AM 69.8 °F 66.2 °F 88% 29.96 in 10.0 mi West 8.1 mph - N/A   Overcast
10:38 AM 69.8 °F 66.2 °F 88% 29.96 in 10.0 mi WSW 8.1 mph - N/A Rain Light Rain Showers
10:55 AM 69.8 °F 66.2 °F 88% 29.95 in 8.0 mi West 5.8 mph - N/A   Light Drizzle
11:00 AM 69.8 °F 66.2 °F 88% 29.95 in 8.0 mi West 4.6 mph - N/A   Light Drizzle
11:25 AM 69.8 °F 66.2 °F 88% 29.95 in 10.0 mi WNW 6.9 mph - N/A   Overcast
11:49 AM 69.8 °F 66.2 °F 88% 29.94 in 10.0 mi WSW 4.6 mph - N/A   Overcast
12:00 PM 71.6 °F 66.2 °F 83% 29.94 in 10.0 mi SW 6.9 mph - N/A   Overcast
1:00 PM 71.6 °F 66.2 °F 83% 29.93 in 10.0 mi West 8.1 mph - N/A   Overcast
1:34 PM 73.4 °F 68.0 °F 83% 29.92 in 10.0 mi West 4.6 mph - N/A   Overcast
2:00 PM 75 °F 67 °F 71% 29.91 in 10 mi West 6.9 mph - -   Partly Cloudy
2:00 PM 75.2 °F 68.0 °F 78% 29.91 in 10.0 mi West 9.2 mph - N/A   Overcast
3:00 PM 75.2 °F 66.2 °F 73% 29.90 in 12.0 mi SW 9.2 mph - N/A   Overcast
4:00 PM 75.2 °F 68.0 °F 78% 29.88 in 12.0 mi SSW 6.9 mph - N/A   Overcast
5:00 PM 75.2 °F 69.8 °F 83% 29.87 in 12.0 mi South 4.6 mph - N/A   Overcast
6:00 PM 73.4 °F 68.0 °F 83% 29.87 in 12.0 mi SSW 8.1 mph - N/A   Overcast
7:00 PM 73.4 °F 69.8 °F 88% 29.87 in 12.0 mi SW 5.8 mph - N/A   Overcast
8:00 PM 72 °F 69 °F 88% 29.86 in 12 mi SSW 5.8 mph - -   Overcast
8:00 PM 71.6 °F 69.8 °F 94% 29.86 in 12.0 mi SW 5.8 mph - N/A   Overcast
9:00 PM 71.6 °F 69.8 °F 94% 29.88 in 8.0 mi WSW 3.5 mph - N/A   Overcast
10:00 PM 71.6 °F 68.0 °F 88% 29.87 in 8.0 mi WSW 4.6 mph - N/A   Overcast
11:00 PM 71.6 °F 69.8 °F 94% 29.86 in 6.0 mi SW 6.9 mph - N/A   Mostly Cloudy